CW4279 Weather Reports


Display with metric or nautical units.
time (UTC)temp
F
wind
direction
speed
MPH
gust
MPH
rain 1hr
in
rain 24hr
in
rain mn
in
humidity
%
barometer
mb
20260904074956 70 136 0.0 0.0 0.00 0.00 0.00 99 1041.7
20260904074451 71 139 0.0 1.0 0.00 0.00 0.00 99 1041.7
20260904073946 71 126 0.0 1.0 0.00 0.00 0.00 99 1041.7
20260904073441 71 132 0.0 0.0 0.00 0.00 0.00 99 1041.6
20260904072937 71 132 0.0 0.0 0.00 0.00 0.00 99 1041.5
20260904072432 71 141 0.0 0.0 0.00 0.00 0.00 99 1041.6
20260904071927 72 141 0.0 0.0 0.00 0.00 0.00 99 1041.6
20260904071423 72 141 0.0 0.0 0.00 0.00 0.00 98 1041.6
20260904070912 72 141 0.0 0.0 0.00 0.00 0.00 98 1041.6
20260904070411 72 141 0.0 0.0 0.00 0.00 0.00 98 1041.3
20260904065910 72 142 0.0 0.0 0.00 0.00 0.00 98 1041.4
20260904065407 72 141 0.0 0.0 0.00 0.00 0.00 98 1041.6
20260904064906 72 142 0.0 0.0 0.00 0.00 0.00 98 1041.4
20260904064402 72 142 0.0 0.0 0.00 0.00 0.00 98 1041.6
20260904063857 73 154 0.0 0.0 0.00 0.00 0.00 98 1041.6
20260904063354 73 154 0.0 0.0 0.00 0.00 0.00 98 1041.6
20260904062849 73 154 0.0 0.0 0.00 0.00 0.00 98 1041.8
20260904062345 73 121 0.0 1.0 0.00 0.00 0.00 97 1041.8
20260904061841 73 118 1.0 1.0 0.00 0.00 0.00 97 1041.8
20260904061337 73 138 0.0 0.0 0.00 0.00 0.00 97 1041.6
20260904060832 73 118 0.0 1.0 0.00 0.00 0.00 97 1041.9
20260904060329 73 130 0.0 1.0 0.00 0.00 0.00 96 1041.9
20260904055824 73 128 0.0 0.0 0.00 0.00 0.00 96 1041.8
20260904055319 73 127 0.0 1.0 0.00 0.00 0.00 95 1041.8
20260904054815 73 140 0.0 0.0 0.00 0.00 0.00 95 1041.8
20260904054311 74 128 0.0 2.0 0.00 0.00 0.00 95 1041.8
20260904053806 74 132 0.0 1.0 0.00 0.00 0.00 94 1041.9
20260904053305 74 150 0.0 1.0 0.00 0.00 0.00 94 1041.8
20260904052801 74 154 1.0 1.0 0.00 0.00 0.00 94 1041.7
20260904052258 74 156 0.0 1.0 0.00 0.00 0.00 93 1041.7
20260904051754 74 151 0.0 1.0 0.00 0.00 0.00 93 1041.8
20260904051249 75 108 0.0 1.0 0.00 0.00 0.00 93 1042.0
20260904050744 75 107 0.0 1.0 0.00 0.00 0.00 93 1041.8
20260904050240 75 130 0.0 0.0 0.00 0.00 0.00 92 1042.1
20260904045735 75 130 0.0 1.0 0.00 0.03 0.03 93 1042.1
20260904045230 75 126 2.0 2.0 0.00 0.03 0.03 93 1042.1
20260904044724 75 62 0.0 2.0 0.00 0.03 0.03 93 1042.0
20260904044221 75 134 0.0 2.0 0.00 0.03 0.03 92 1041.9
20260904043717 75 148 2.0 2.0 0.00 0.03 0.03 91 1041.7
20260904043213 76 144 2.0 3.0 0.00 0.03 0.03 91 1041.6
20260904042709 76 145 3.0 3.0 0.00 0.03 0.03 90 1041.6
20260904042205 76 166 2.0 3.0 0.00 0.03 0.03 91 1041.6
20260904041704 76 166 2.0 3.0 0.00 0.03 0.03 91 1041.8
20260904041201 76 156 2.0 2.0 0.00 0.03 0.03 91 1041.5
20260904040656 75 139 3.0 3.0 0.00 0.03 0.03 91 1041.4
20260904040152 75 122 2.0 3.0 0.00 0.03 0.03 91 1041.5
20260904035648 75 148 2.0 3.0 0.00 0.03 0.03 91 1041.4
20260904035143 75 151 2.0 3.0 0.00 0.03 0.03 91 1041.3
20260904034642 75 162 2.0 2.0 0.00 0.03 0.03 91 1041.6
20260904034138 75 165 2.0 2.0 0.00 0.03 0.03 91 1041.3
20260904033633 75 156 3.0 3.0 0.00 0.03 0.03 91 1041.4
20260904033131 75 145 3.0 3.0 0.00 0.03 0.03 91 1041.3
20260904032626 75 150 3.0 5.0 0.00 0.03 0.03 91 1041.4
20260904032125 75 152 3.0 5.0 0.00 0.03 0.03 91 1041.5
20260904031624 75 155 2.0 3.0 0.00 0.03 0.03 91 1041.7
20260904031120 75 149 3.0 3.0 0.00 0.03 0.03 91 1041.6
20260904030616 75 150 2.0 3.0 0.00 0.03 0.03 91 1041.9
20260904030111 75 155 2.0 3.0 0.00 0.03 0.03 91 1042.0
20260904025607 75 161 1.0 3.0 0.00 0.03 0.03 91 1041.9
20260904025102 75 144 2.0 5.0 0.00 0.03 0.03 92 1042.2
20260904024557 74 155 2.0 3.0 0.00 0.03 0.03 92 1041.9
20260904024053 74 147 1.0 2.0 0.00 0.03 0.03 92 1042.0
20260904023549 74 147 2.0 3.0 0.00 0.03 0.03 93 1042.1
20260904023045 74 152 1.0 3.0 0.00 0.03 0.03 93 1041.9
20260904022544 74 139 2.0 2.0 0.00 0.03 0.03 93 1041.9
20260904022041 74 150 0.0 1.0 0.00 0.03 0.03 93 1041.9
20260904021536 74 138 0.0 8.0 0.00 0.03 0.03 93 1041.9
20260904021032 74 136 1.0 2.0 0.00 0.03 0.03 93 1041.8
20260904020526 74 171 1.0 2.0 0.00 0.03 0.03 93 1041.7
20260904020021 74 159 1.0 2.0 0.00 0.03 0.03 93 1041.6
20260904015516 74 136 2.0 2.0 0.00 0.03 0.03 92 1041.6
20260904015015 74 151 2.0 2.0 0.00 0.03 0.03 92 1041.6
20260904014509 74 148 1.0 3.0 0.00 0.03 0.03 92 1041.5
20260904014005 74 141 1.0 2.0 0.00 0.03 0.03 92 1041.5
20260904013501 74 161 1.0 2.0 0.00 0.03 0.03 92 1041.1
20260904012957 74 148 1.0 2.0 0.00 0.03 0.03 92 1041.3
20260904012457 74 153 1.0 2.0 0.00 0.03 0.03 91 1041.3
20260904011950 74 169 2.0 3.0 0.00 0.03 0.03 91 1041.4
20260904011446 75 156 1.0 3.0 0.00 0.03 0.03 91 1041.2
20260904010941 75 168 1.0 3.0 0.00 0.03 0.03 90 1041.2
20260904010437 75 159 2.0 2.0 0.00 0.03 0.03 90 1041.3
20260904005931 75 151 2.0 2.0 0.00 0.03 0.03 90 1041.4
20260904005427 75 146 0.0 5.0 0.00 0.03 0.03 90 1041.5
20260904004922 75 139 0.0 2.0 0.00 0.03 0.03 91 1041.5
20260904004418 75 152 2.0 2.0 0.00 0.03 0.03 90 1041.5
20260904003913 75 185 1.0 2.0 0.00 0.03 0.03 90 1041.3
20260904003409 75 146 0.0 2.0 0.00 0.03 0.03 90 1041.3
20260904002903 75 152 0.0 2.0 0.00 0.03 0.03 90 1041.5
20260904002400 75 153 0.0 2.0 0.00 0.03 0.03 90 1041.5
20260904001859 75 149 0.0 1.0 0.00 0.03 0.03 90 1041.7
20260904001355 76 151 0.0 1.0 0.00 0.03 0.03 90 1041.4
20260904000849 76 153 0.0 1.0 0.00 0.03 0.03 90 1041.4
20260904000348 76 143 1.0 1.0 0.00 0.03 0.03 89 1041.4
20260903235849 75 157 2.0 2.0 0.00 0.03 0.03 89 1041.1
20260903235345 75 156 1.0 1.0 0.00 0.03 0.03 90 1041.3
20260903234844 75 149 0.0 0.0 0.00 0.03 0.03 93 1041.3
20260903234340 75 150 0.0 1.0 0.00 0.03 0.03 93 1040.9
20260903233837 74 154 0.0 1.0 0.00 0.03 0.03 94 1041.1
20260903233332 74 156 0.0 1.0 0.00 0.03 0.03 94 1040.7
20260903232831 75 153 0.0 1.0 0.00 0.03 0.03 94 1041.1
20260903232327 75 151 0.0 1.0 0.00 0.03 0.03 94 1040.9
20260903231826 74 152 1.0 2.0 0.00 0.03 0.03 94 1040.9
20260903231322 74 151 1.0 1.0 0.00 0.03 0.03 95 1040.9
20260903230817 74 154 0.0 2.0 0.00 0.03 0.03 95 1040.7
20260903230312 74 160 1.0 1.0 0.00 0.03 0.03 95 1040.7
20260903225809 73 137 2.0 2.0 0.00 0.03 0.03 95 1040.6
20260903225306 73 157 1.0 2.0 0.00 0.03 0.03 96 1040.7
20260903224801 73 149 0.0 1.0 0.00 0.03 0.03 96 1040.8
20260903224256 73 149 0.0 1.0 0.00 0.03 0.03 95 1040.8
20260903223752 73 152 1.0 2.0 0.00 0.03 0.03 95 1040.7
20260903223250 73 150 1.0 1.0 0.17 0.03 0.03 93 1040.9
20260903222745 75 143 2.0 3.0 0.12 0.02 0.02 88 1041.3
20260903222244 78 164 3.0 5.0 0.00 0.00 0.00 78 1041.2
20260903221739 78 150 2.0 2.0 0.00 0.00 0.00 77 1041.0
20260903221238 80 152 2.0 3.0 0.00 0.00 0.00 72 1041.1
20260903220736 80 157 3.0 3.0 0.00 0.00 0.00 70 1041.2
20260903220231 80 173 1.0 2.0 0.00 0.00 0.00 69 1040.9
20260903215730 80 153 2.0 2.0 0.00 0.00 0.00 69 1040.7
20260903215226 80 157 2.0 3.0 0.00 0.00 0.00 70 1040.8
20260903214723 81 151 2.0 5.0 0.00 0.00 0.00 69 1040.8
20260903214220 81 152 2.0 3.0 0.00 0.00 0.00 68 1040.8
20260903213714 81 151 2.0 3.0 0.00 0.00 0.00 67 1040.9
20260903213210 82 164 3.0 5.0 0.00 0.00 0.00 66 1041.1
20260903212706 82 150 3.0 5.0 0.00 0.00 0.00 64 1041.1
20260903212203 83 145 5.0 6.0 0.00 0.00 0.00 63 1040.9
20260903211701 84 172 4.0 5.0 0.00 0.00 0.00 62 1041.0
20260903211158 85 169 3.0 5.0 0.00 0.00 0.00 62 1040.6
20260903210654 86 147 3.0 3.0 0.00 0.00 0.00 61 1040.8
20260903210149 85 140 3.0 5.0 0.00 0.00 0.00 62 1040.8
20260903205643 86 171 3.0 5.0 0.00 0.00 0.00 60 1041.0
20260903205142 87 152 4.0 5.0 0.00 0.00 0.00 59 1040.6
20260903204638 87 180 3.0 5.0 0.00 0.00 0.00 59 1040.9
20260903204134 87 174 3.0 5.0 0.00 0.00 0.00 59 1041.2
20260903203629 87 171 3.0 6.0 0.00 0.00 0.00 59 1041.2
20260903203124 87 174 3.0 5.0 0.00 0.00 0.00 60 1041.1
20260903202619 87 143 3.0 3.0 0.00 0.00 0.00 60 1041.2
20260903202114 87 179 3.0 5.0 0.00 0.00 0.00 59 1041.2
20260903201609 87 167 3.0 5.0 0.00 0.00 0.00 59 1041.3
20260903201108 88 161 3.0 5.0 0.00 0.00 0.00 59 1041.2
20260903200603 87 158 3.0 5.0 0.00 0.00 0.00 60 1041.0
20260903200058 87 174 3.0 5.0 0.00 0.00 0.00 61 1041.4
20260903195554 86 158 1.0 2.0 0.00 0.00 0.00 62 1041.2
20260903195050 85 142 2.0 3.0 0.00 0.00 0.00 65 1041.6
20260903194545 86 170 3.0 5.0 0.00 0.00 0.00 62 1041.2
20260903194040 87 166 3.0 3.0 0.00 0.00 0.00 62 1041.3
20260903193536 87 140 3.0 3.0 0.00 0.00 0.00 60 1041.4
20260903193031 86 170 3.0 3.0 0.00 0.00 0.00 60 1041.3
20260903192528 87 152 4.0 5.0 0.00 0.00 0.00 59 1041.4
20260903192028 87 162 3.0 7.0 0.00 0.00 0.00 60 1041.6
20260903191525 86 161 3.0 5.0 0.00 0.00 0.00 60 1041.6
20260903191019 87 152 3.0 3.0 0.00 0.00 0.00 60 1041.7
20260903190519 89 174 3.0 5.0 0.00 0.00 0.00 57 1041.6
20260903190018 89 154 2.0 3.0 0.00 0.00 0.00 58 1041.7
20260903185514 87 147 2.0 7.0 0.00 0.00 0.00 62 1041.7
20260903185009 88 147 2.0 3.0 0.00 0.00 0.00 59 1041.6
20260903184506 88 165 3.0 3.0 0.00 0.00 0.00 59 1041.5
20260903184006 88 146 3.0 5.0 0.00 0.00 0.00 60 1041.6
20260903183459 88 153 2.0 3.0 0.00 0.00 0.00 60 1041.9
20260903183000 88 159 2.0 3.0 0.00 0.00 0.00 63 1041.9
20260903182458 88 156 2.0 2.0 0.00 0.00 0.00 64 1041.8
20260903181955 87 164 1.0 3.0 0.00 0.00 0.00 64 1042.0
20260903181453 86 163 2.0 2.0 0.00 0.00 0.00 66 1041.9
20260903180948 86 144 2.0 3.0 0.00 0.00 0.00 67 1041.8
20260903180443 84 154 1.0 2.0 0.00 0.00 0.00 68 1042.0
20260903175942 84 150 2.0 3.0 0.00 0.00 0.00 67 1042.0
20260903175437 83 155 1.0 2.0 0.00 0.00 0.00 69 1042.3
20260903174936 83 148 1.0 2.0 0.00 0.00 0.00 69 1042.4
20260903174431 83 143 2.0 2.0 0.00 0.00 0.00 68 1042.1
20260903173931 84 155 2.0 3.0 0.00 0.00 0.00 68 1042.5
20260903173426 83 176 2.0 2.0 0.00 0.00 0.00 67 1042.5
20260903172921 84 153 1.0 2.0 0.00 0.00 0.00 68 1042.6
20260903172417 85 158 2.0 2.0 0.00 0.00 0.00 65 1042.6
20260903171912 84 162 2.0 2.0 0.00 0.00 0.00 68 1042.7
20260903171407 83 168 2.0 3.0 0.00 0.00 0.00 68 1042.6
20260903170907 83 157 1.0 2.0 0.00 0.00 0.00 69 1042.8
20260903170402 82 156 1.0 1.0 0.00 0.00 0.00 71 1042.6
20260903165900 82 148 1.0 2.0 0.00 0.00 0.00 69 1042.7
20260903165355 81 155 0.0 1.0 0.00 0.00 0.00 73 1042.8
20260903164849 81 153 1.0 3.0 0.00 0.00 0.00 74 1042.9
20260903164345 81 156 2.0 2.0 0.00 0.00 0.00 73 1043.1
20260903163844 81 162 1.0 2.0 0.00 0.00 0.00 73 1043.2
20260903163341 81 155 1.0 2.0 0.00 0.00 0.00 72 1043.0
20260903162836 82 154 2.0 2.0 0.00 0.00 0.00 71 1042.8
20260903162333 82 167 0.0 1.0 0.00 0.00 0.00 72 1042.8
20260903161828 82 161 1.0 2.0 0.00 0.00 0.00 71 1042.9
20260903161324 82 166 1.0 2.0 0.00 0.00 0.00 70 1043.0
20260903160819 82 165 1.0 2.0 0.00 0.00 0.00 71 1042.9
20260903160318 83 158 1.0 1.0 0.00 0.00 0.00 69 1042.5
20260903155817 82 137 1.0 1.0 0.00 0.00 0.00 70 1042.7
20260903155312 82 163 1.0 2.0 0.00 0.00 0.00 70 1042.7
20260903154807 84 148 1.0 2.0 0.00 0.00 0.00 69 1042.7
20260903154304 84 142 1.0 3.0 0.00 0.00 0.00 68 1042.7
20260903153759 84 140 1.0 2.0 0.00 0.00 0.00 69 1042.8
20260903153255 83 143 1.0 2.0 0.00 0.00 0.00 69 1042.7
20260903152751 83 160 2.0 3.0 0.00 0.00 0.00 69 1042.6
20260903152246 83 153 1.0 1.0 0.00 0.00 0.00 71 1042.8
20260903151746 82 92 2.0 2.0 0.00 0.00 0.00 71 1042.6
20260903151242 81 173 2.0 2.0 0.00 0.00 0.00 73 1042.7
20260903150736 79 157 1.0 1.0 0.00 0.00 0.00 75 1042.8
20260903150236 79 150 1.0 2.0 0.00 0.00 0.00 78 1042.5
20260903145731 80 160 1.0 1.0 0.00 0.00 0.00 76 1042.6
20260903145227 79 160 2.0 2.0 0.00 0.00 0.00 78 1043.1
20260903144725 77 158 1.0 2.0 0.00 0.00 0.00 80 1042.8
20260903144221 76 159 2.0 3.0 0.00 0.00 0.00 82 1042.6
20260903143717 76 167 2.0 2.0 0.00 0.00 0.00 82 1043.0
20260903143213 75 163 4.0 5.0 0.00 0.00 0.00 82 1043.0
20260903142709 75 166 1.0 2.0 0.00 0.00 0.00 83 1042.9
20260903142205 75 164 1.0 3.0 0.00 0.00 0.00 83 1042.9
20260903141700 75 160 2.0 3.0 0.00 0.00 0.00 84 1042.6
20260903141154 75 150 1.0 2.0 0.00 0.00 0.00 84 1042.7
20260903140651 75 148 2.0 2.0 0.00 0.00 0.00 84 1042.8
20260903140146 74 166 2.0 3.0 0.00 0.00 0.00 84 1043.0
20260903135642 74 149 1.0 2.0 0.00 0.00 0.00 84 1043.0
20260903135136 74 156 2.0 2.0 0.00 0.00 0.00 85 1043.0
20260903134635 73 154 0.0 2.0 0.00 0.00 0.00 86 1043.3
20260903134131 73 157 2.0 3.0 0.00 0.00 0.00 86 1043.0
20260903133629 72 168 2.0 3.0 0.00 0.00 0.00 86 1043.1
20260903133125 72 151 2.0 3.0 0.00 0.00 0.00 87 1043.3
20260903132624 72 157 3.0 3.0 0.00 0.00 0.00 87 1043.3
20260903132119 71 150 2.0 2.0 0.00 0.00 0.00 87 1043.3
20260903131614 71 154 1.0 2.0 0.00 0.00 0.00 88 1043.2
20260903131113 70 152 1.0 2.0 0.00 0.00 0.00 88 1043.2
20260903130609 69 154 1.0 2.0 0.00 0.00 0.00 90 1042.9
20260903125601 67 143 0.0 0.0 0.00 0.00 0.00 94 1043.6
20260903125056 66 167 1.0 1.0 0.00 0.00 0.00 93 1043.7
20260903124551 66 115 0.0 0.0 0.00 0.00 0.00 94 1043.4
20260903124050 66 115 0.0 1.0 0.00 0.00 0.00 94 1043.3
20260903123550 66 116 1.0 1.0 0.00 0.00 0.00 94 1043.3
20260903123048 66 116 0.0 0.0 0.00 0.00 0.00 95 1043.1
20260903122543 66 116 0.0 0.0 0.00 0.00 0.00 94 1043.2
20260903122042 66 116 0.0 1.0 0.00 0.00 0.00 94 1043.2
20260903121537 66 116 0.0 1.0 0.00 0.00 0.00 93 1043.2
20260903121033 66 117 0.0 0.0 0.00 0.00 0.00 94 1043.2
20260903120532 66 117 0.0 0.0 0.00 0.00 0.00 94 1043.3
20260903120026 65 115 1.0 1.0 0.00 0.00 0.00 94 1043.4
20260903115519 65 119 1.0 1.0 0.00 0.00 0.00 95 1043.4
20260903115014 64 119 1.0 1.0 0.00 0.00 0.00 96 1043.6
20260903114509 64 141 0.0 1.0 0.00 0.00 0.00 96 1043.4
20260903114005 64 168 0.0 1.0 0.00 0.00 0.00 96 1043.3
20260903113501 64 111 1.0 2.0 0.00 0.00 0.00 97 1043.5
20260903112955 64 134 0.0 1.0 0.00 0.00 0.00 97 1043.3
20260903112451 64 124 0.0 1.0 0.00 0.00 0.00 97 1043.1
20260903111951 64 124 0.0 1.0 0.00 0.00 0.00 97 1043.1
20260903111445 64 130 0.0 1.0 0.00 0.00 0.00 97 1042.9
20260903110942 64 144 0.0 1.0 0.00 0.00 0.00 97 1043.1
20260903110437 64 165 1.0 1.0 0.00 0.00 0.00 97 1043.1
20260903105931 64 156 0.0 1.0 0.00 0.00 0.00 96 1043.0
20260903105427 64 146 0.0 0.0 0.00 0.00 0.00 96 1043.0
20260903104926 64 149 0.0 0.0 0.00 0.00 0.00 96 1042.7
20260903104426 64 123 1.0 1.0 0.00 0.00 0.00 96 1042.8
20260903103923 65 124 0.0 0.0 0.00 0.00 0.00 95 1042.8
20260903103419 65 124 0.0 0.0 0.00 0.00 0.00 95 1042.6
20260903102914 65 124 0.0 0.0 0.00 0.00 0.00 94 1042.8
20260903102409 65 124 0.0 0.0 0.00 0.00 0.00 94 1043.0
20260903101908 65 124 0.0 0.0 0.00 0.00 0.00 94 1042.9
20260903101403 65 124 0.0 0.0 0.00 0.00 0.00 94 1042.8
20260903100859 65 124 0.0 0.0 0.00 0.00 0.00 94 1043.0
20260903100354 65 124 0.0 1.0 0.00 0.00 0.00 94 1043.0
20260903095850 65 126 0.0 1.0 0.00 0.00 0.00 93 1042.9
20260903095344 66 145 0.0 1.0 0.00 0.00 0.00 91 1042.9
20260903094840 67 122 0.0 2.0 0.00 0.00 0.00 89 1042.7
20260903094334 67 140 0.0 2.0 0.00 0.00 0.00 86 1043.0
20260903093830 67 145 0.0 1.0 0.00 0.00 0.00 87 1042.7
20260903093325 66 101 0.0 1.0 0.00 0.00 0.00 90 1042.3
20260903092820 66 118 1.0 2.0 0.00 0.00 0.00 92 1042.6
20260903092314 66 149 0.0 0.0 0.00 0.00 0.00 92 1042.5
20260903091814 66 140 0.0 1.0 0.00 0.00 0.00 91 1042.7
20260903091307 66 117 1.0 1.0 0.00 0.00 0.00 91 1042.9
20260903090803 67 122 0.0 1.0 0.00 0.00 0.00 89 1043.0
20260903090303 67 126 0.0 3.0 0.00 0.00 0.00 89 1043.0
20260903085801 67 134 0.0 1.0 0.00 0.00 0.00 90 1043.0
20260903085256 67 117 1.0 1.0 0.00 0.00 0.00 90 1043.1
20260903084754 67 120 0.0 1.0 0.00 0.00 0.00 90 1042.9
20260903084249 67 141 0.0 1.0 0.00 0.00 0.00 91 1043.1
20260903083744 66 126 0.0 1.0 0.00 0.00 0.00 91 1042.9
20260903083244 66 136 0.0 1.0 0.00 0.00 0.00 92 1042.7
20260903082743 66 128 0.0 1.0 0.00 0.00 0.00 93 1042.8
20260903082234 66 128 0.0 1.0 0.00 0.00 0.00 93 1043.0
20260903081734 66 126 0.0 1.0 0.00 0.00 0.00 94 1043.0
20260903081230 66 123 1.0 1.0 0.00 0.00 0.00 94 1043.0
20260903080726 65 113 0.0 0.0 0.00 0.00 0.00 95 1043.0
20260903080223 66 135 0.0 0.0 0.00 0.00 0.00 95 1043.1
20260903075722 66 135 0.0 0.0 0.00 0.00 0.00 95 1043.0
20260903075218 66 135 0.0 0.0 0.00 0.00 0.00 95 1043.3